Location: Dampvalley
(47.9094°N, 6.1967°E)
Time: 09:11:33
(UTC+00:00)

AO-109 - Visible Passes

Search period start: 01 December 2021 00:00
Search period end: 11 December 2021 00:00
Orbit: 474 x 523 km, 60.7° (Epoch: 30 November)

Date Brightness Start Highest point End Pass type
(mag) Time Alt. Az. Time Alt. Az. Time Alt. Az.
01 Dec ? 04:11:49 16° NE 04:11:49 16° NE 04:13:25 10° ENE visible
01 Dec ? 05:46:26 16° NW 05:49:17 63° NE 05:52:55 10° SE visible
02 Dec ? 03:51:09 12° NE 03:51:09 12° NE 03:51:47 10° ENE visible
02 Dec ? 05:25:47 25° NNW 05:27:43 60° NE 05:31:21 10° ESE visible
03 Dec ? 05:05:10 41° NNW 05:06:09 57° NE 05:09:46 10° ESE visible
04 Dec ? 04:44:37 53° NE 04:44:37 53° NE 04:48:11 10° ESE visible
04 Dec ? 06:19:15 10° WNW 06:21:57 20° WSW 06:24:39 10° S visible
05 Dec ? 04:24:07 36° E 04:24:07 36° E 04:26:35 10° ESE visible
05 Dec ? 05:58:45 16° W 06:00:24 21° WSW 06:03:12 10° S visible
06 Dec ? 04:03:40 20° ESE 04:03:40 20° ESE 04:04:58 10° ESE visible
06 Dec ? 05:38:19 21° WSW 05:38:50 22° WSW 05:41:44 10° S visible
07 Dec ? 03:43:19 10° ESE 03:43:19 10° ESE 03:43:21 10° ESE visible
07 Dec ? 05:17:58 22° SW 05:17:58 22° SW 05:20:15 10° S visible
08 Dec ? 04:57:40 16° SSW 04:57:40 16° SSW 04:58:45 10° S visible
